Location: Elliott Corner
(37.4627°N, 119.7746°W)
Time: 00:12:12
(UTC+00:00)

Cosmos 1726 Rocket - Pass Details

Date: 10 September 2024
Orbit: 599 x 624 km, 82.5° (Epoch: 13 October)

Event Time Altitude Azimuth Distance (km) Brightness Sun altitude
Rises 12:37:48 0° 193° (SSW) 2,834 6.7 -12.4°
Reaches altitude 10° 12:40:00 10° 197° (SSW) 1,939 5.8 -12.0°
Maximum altitude 12:44:15 62° 278° (W) 681 3.5 -11.2°
Drops below altitude 10° 12:48:33 10° 0° (N) 1,966 6.3 -10.4°
Sets 12:50:49 0° 4° (N) 2,879 7.2 -9.9°
